Simultaneous Nadir Overpasses (SNOs) Predictions

Prediction of SNOs between NOAA-19 and NPP Satellite Orbit:

Table of predicted SNOs for the next 14.0 days since TLE Epoch: 6/29/2012
Index Date (NOAA-19) Time (NOAA-19) NOAA-19 Lat,Lon Date (NPP) Time (NPP) NPP Lat,Lon Distance(km) Time Diff (sec)
1 07/03/2012 12:03:35 -80.65, 131.93 07/03/2012 12:04:35 -80.65, 131.94 0.25 60
2 07/03/2012 12:54:30 80.60, -59.94 07/03/2012 12:55:18 80.60, -60.10 3.00 48
3 07/03/2012 13:45:38 -80.60, 107.17 07/03/2012 13:46:03 -80.60, 107.29 2.31 25
4 07/03/2012 14:36:32 80.53, -84.37 07/03/2012 14:36:45 80.53, -84.42 0.93 13
5 07/03/2012 15:27:37 -80.47, 83.73 07/03/2012 15:27:28 -80.48, 83.62 2.11 9
6 07/03/2012 16:18:35 80.48,-109.15 07/03/2012 16:18:13 80.48,-109.09 1.20 22
7 07/03/2012 17:09:39
